Home > Weather > Worcester > Past weeks

Flag for USA Past Weather in Worcester, Massachusetts, USA — Yesterday and Last 2 Weeks

Now
81 °F

Passing clouds.


Feels Like: 81 °F
Forecast: 59 / 87 °F
Wind: 14 mph from Southwest

Location: Worcester Regional Airport

Current Time: Jun 26, 2016 at 6:49:41 PM

Latest Report: Jun 26, 2016 at 5:54 PM


Visibility: 10 mi

Pressure: 30.14 "Hg

Humidity: 44%

Dew Point: 57 °F

Location of WorcesterLocation

Past Weather in Worcester — Graph

°F

Worcester Temperature Yesterday

Maximum temperature yesterday: 81 °F (at 3:54 PM)
Minimum temperature yesterday: 58 °F (at 2:54 AM)
Average temperature yesterday: 69 °F

High & Low Weather Summary for the Past Weeks

 TemperatureHumidityPressure
High83 °F (Jun 26, 2:54 PM)96% (Jun 12, 2:54 AM)30.33 "Hg (Jun 12, 2:54 AM)
Low49 °F (Jun 13, 12:54 AM)24% (Jun 18, 12:54 PM)29.55 "Hg (Jun 12, 7:54 AM)
Average66 °F53%29.95 "Hg
* Reported Jun 11 4:54 PM — Jun 26 4:54 PM, Worcester, Weather by CustomWeather, © 2016

Note: Actual official high and low records may vary slightly from our data, if they occured in-between our weather recording intervals... More about our weather records

Advertising

Worcester Weather History for the Previous 24 Hours

Scroll right to see more
 ConditionsComfort  
Time TempWeatherWind HumidityBarometerVisibility
4:54 PM
Sun, Jun 26
82 °FScattered clouds.9 mph41%30.15 "Hg10 mi
3:54 PM83 °FSunny.7 mph38%30.16 "Hg10 mi
2:54 PM83 °FPassing clouds.12 mph38%30.18 "Hg10 mi
1:54 PM81 °FSunny.9 mph39%30.19 "Hg10 mi
12:54 PM81 °FSunny.5 mph41%30.21 "Hg10 mi
11:54 AM78 °FSunny.5 mph45%30.22 "Hg10 mi
10:54 AM76 °FSunny.8 mph45%30.22 "Hg10 mi
9:54 AM73 °FSunny.5 mph46%30.22 "Hg7 mi
8:54 AM71 °FSunny.7 mph44%30.24 "Hg10 mi
7:54 AM68 °FSunny.12 mph47%30.22 "Hg10 mi
6:54 AM66 °FSunny.15 mph42%30.21 "Hg10 mi
5:54 AM63 °FClear.15 mph48%30.20 "Hg10 mi
4:54 AM61 °FClear.14 mph58%30.23 "Hg10 mi
3:54 AM60 °FClear.13 mph60%30.23 "Hg10 mi
2:54 AM60 °FClear.10 mph60%30.22 "Hg10 mi
1:54 AM59 °FClear.9 mph62%30.21 "Hg10 mi
12:54 AM59 °FClear.7 mph67%30.21 "Hg10 mi
11:54 PM
Sat, Jun 25
62 °FClear.9 mph65%30.22 "Hg10 mi
10:54 PM65 °FClear.9 mph63%30.22 "Hg10 mi
9:54 PM68 °FClear.6 mph59%30.22 "Hg10 mi
8:54 PM70 °FSunny.6 mph53%30.21 "Hg10 mi
7:54 PM75 °FSunny.12 mph39%30.19 "Hg10 mi
6:54 PM78 °FSunny.5 mph35%30.17 "Hg10 mi
Weather by CustomWeather, © 2016

See weather overviewHow to use our weather pages